Weather History for Hatteras, NC

Change the Weather History Date:

Thursday, January 26, 2012

  Actual Average Record
Temperature  
Mean Temperature 59 °F 45 °F  
Max Temperature 71 °F 52 °F 72 °F (1916)
Min Temperature 47 °F 39 °F 21 °F (1905)
Degree Days  
Heating Degree Days 6 20  
Month to date heating degree days 368 513  
Since 1 July heating degree days 950 1320  
Cooling Degree Days 0 0  
Month to date cooling degree days 0 0  
Year to date cooling degree days 0 0  
Growing Degree Days 10 (Base 50)    
Moisture  
Dew Point 55 °F    
Average Humidity 80    
Maximum Humidity 96    
Minimum Humidity 63    
Precipitation  
Precipitation 0.10 in 0.17 in 2.22 in (1966)
Month to date precipitation 4.73 4.41  
Year to date precipitation 4.73 4.41  
Snow  
Snow 0.00 in - - ()
Month to date snowfall 0.0  
Since 1 July snowfall 0.0  
Snow Depth 0.00 in    
Sea Level Pressure  
Sea Level Pressure 30.08 in    
Wind  
Wind Speed 4 mph (South)    
Max Wind Speed 21 mph    
Max Gust Speed 32 mph    
Visibility 8 miles    
Events Rain    
T = Trace of Precipitation, MM = Missing Value Source: NWS Daily Summary

Daily Weather History Graph

Daily Weather History Graph

Search for Another Location

Airport:

Trip Planner

Search our weather history database for the weather conditions in past years. The results will help you decide how hot, cold, wet, or windy it might be!

Date:

Astronomy

Jan. 26, 2012 Rise Set
Actual Time 7:06 AM EST 5:24 PM EST
Civil Twilight 6:39 AM EST 5:51 PM EST
Nautical Twilight 6:08 AM EST 6:21 PM EST
Astronomical Twilight 5:38 AM EST 6:52 PM EST
Moon 8:42 AM EST (1/26) 9:03 PM EST (1/26)
Length of Visible Light 11h 12m
Length of Day
10h 18m
Waxing Crescent, 12% of the Moon is Illuminated
Jan 26
Waxing Crescent
Jan 30
First Quarter
Feb 7
Full
Feb 14
Last Quarter
Feb 21
New

Hourly Weather History & Observations

Time (EST) Temp. Dew Point Humidity Pressure Visibility Wind Dir Wind Speed Gust Speed Precip Events Conditions
12:00 AM - - N/A% - - North - - N/A   Unknown
12:51 AM 52.0 °F 48.9 °F 89% 30.20 in 8.0 mi North 6.9 mph - N/A   Clear
1:51 AM 52.0 °F 48.9 °F 89% 30.19 in 9.0 mi NNE 6.9 mph - N/A   Partly Cloudy
2:51 AM 52.0 °F 50.0 °F 93% 30.19 in 8.0 mi Calm Calm - N/A   Clear
3:51 AM 51.1 °F 48.9 °F 92% 30.17 in 7.0 mi NNE 4.6 mph - N/A   Clear
4:51 AM 53.1 °F 50.0 °F 89% 30.17 in 10.0 mi NE 3.5 mph - N/A   Clear
5:51 AM 50.0 °F 48.0 °F 93% 30.17 in 10.0 mi NE 3.5 mph - N/A   Partly Cloudy
6:51 AM 48.0 °F 45.0 °F 89% 30.18 in 4.0 mi Calm Calm - N/A   Clear
7:51 AM 48.9 °F 46.0 °F 90% 30.17 in 9.0 mi ESE 3.5 mph - N/A   Clear
8:51 AM 57.9 °F 55.0 °F 90% 30.17 in 7.0 mi ESE 3.5 mph - N/A   Clear
9:51 AM 63.0 °F 54.0 °F 72% 30.16 in 10.0 mi ESE 5.8 mph - N/A   Clear
10:51 AM 66.9 °F 54.0 °F 63% 30.14 in 10.0 mi ESE 5.8 mph - N/A   Overcast
11:51 AM 69.1 °F 57.9 °F 68% 30.10 in 10.0 mi ESE 3.5 mph - N/A   Overcast
12:51 PM 71.1 °F 59.0 °F 66% 30.06 in 10.0 mi Calm Calm - N/A   Overcast
1:51 PM 64.9 °F 57.0 °F 75% 30.04 in 9.0 mi SW 3.5 mph - N/A   Overcast
2:51 PM 66.0 °F 57.9 °F 75% 30.02 in 10.0 mi Calm Calm - N/A   Overcast
3:51 PM 66.9 °F 57.9 °F 73% 30.01 in 10.0 mi SSE 3.5 mph - N/A   Clear
4:51 PM 63.0 °F 57.0 °F 81% 30.01 in 10.0 mi Calm Calm - N/A   Partly Cloudy
5:51 PM 61.0 °F 55.9 °F 83% 30.01 in 8.0 mi Calm Calm - N/A   Clear
6:51 PM 62.1 °F 59.0 °F 90% 30.01 in 10.0 mi SW 3.5 mph - N/A   Scattered Clouds
7:51 PM 64.0 °F 61.0 °F 90% 30.00 in 10.0 mi SW 4.6 mph - N/A   Overcast
8:51 PM 62.1 °F 59.0 °F 90% 29.99 in 9.0 mi SW 6.9 mph - N/A   Overcast
9:51 PM 61.0 °F 57.9 °F 90% 29.97 in 9.0 mi SW 5.8 mph - 0.01 in   Overcast
10:51 PM 63.0 °F 60.1 °F 90% 29.97 in 4.0 mi WSW 18.4 mph 24.2 mph 0.01 in Rain Light Rain
10:57 PM 62.6 °F 60.8 °F 94% 29.97 in 2.5 mi WSW 15.0 mph 24.2 mph 0.02 in Rain Heavy Rain
11:08 PM 62.6 °F 60.8 °F 94% 29.97 in 4.0 mi WSW 13.8 mph 23.0 mph 0.04 in Rain Light Rain
11:51 PM 62.1 °F 60.1 °F 93% 29.94 in 5.0 mi SW 10.4 mph - 0.07 in Rain Light Rain